| time (UTC) | temp F | wind direction | speed MPH | gust MPH | rain 1hr in | rain 24hr in | rain mn in | humidity % | barometer mb |
| 20260505041502 | 75 | 148 | 4.0 | 9.0 | 0.00 | 0.00 | 0.00 | 76 | 1002.9 |
| 20260505040000 | 75 | 177 | 3.0 | 11.0 | 0.00 | 0.00 | 0.00 | 75 | 1003.0 |
| 20260505034502 | 75 | 206 | 3.0 | 11.0 | 0.00 | 0.00 | 0.00 | 75 | 1003.0 |
| 20260505033100 | 75 | 200 | 3.0 | 9.0 | 0.00 | 0.00 | 0.00 | 75 | 1002.9 |
| 20260505031601 | 75 | 176 | 4.0 | 11.0 | 0.00 | 0.00 | 0.00 | 75 | 1003.0 |
| 20260505030100 | 75 | 172 | 2.0 | 7.0 | 0.00 | 0.00 | 0.00 | 75 | 1003.1 |
| 20260505024558 | 75 | 202 | 2.0 | 9.0 | 0.00 | 0.00 | 0.00 | 74 | 1003.3 |
| 20260505023057 | 75 | 149 | 1.0 | 7.0 | 0.00 | 0.00 | 0.00 | 74 | 1003.1 |
| 20260505021557 | 76 | 171 | 1.0 | 10.0 | 0.00 | 0.00 | 0.00 | 73 | 1003.0 |
| 20260505020055 | 76 | 184 | 3.0 | 7.0 | 0.00 | 0.00 | 0.00 | 73 | 1002.9 |
| 20260505014611 | 76 | 128 | 3.0 | 9.0 | 0.00 | 0.00 | 0.00 | 72 | 1003.0 |
| 20260505013055 | 76 | 197 | 3.0 | 10.0 | 0.00 | 0.00 | 0.00 | 72 | 1002.9 |
| 20260505011603 | 77 | 195 | 4.0 | 11.0 | 0.00 | 0.00 | 0.00 | 71 | 1003.0 |
| 20260505010055 | 77 | 195 | 5.0 | 12.0 | 0.00 | 0.00 | 0.00 | 70 | 1003.0 |
| 20260505004553 | 77 | 221 | 6.0 | 17.0 | 0.00 | 0.00 | 0.00 | 70 | 1002.9 |
| 20260505003051 | 78 | 238 | 5.0 | 15.0 | 0.00 | 0.00 | 0.00 | 69 | 1002.9 |
| 20260505001603 | 78 | 199 | 4.0 | 10.0 | 0.00 | 0.00 | 0.00 | 68 | 1003.0 |
| 20260505000105 | 79 | 148 | 5.0 | 14.0 | 0.00 | 0.00 | 0.00 | 67 | 1003.2 |
| 20260504234605 | 79 | 184 | 3.0 | 8.0 | 0.00 | 0.00 | 0.00 | 67 | 1003.2 |
| 20260504233050 | 79 | 219 | 3.0 | 10.0 | 0.00 | 0.00 | 0.00 | 67 | 1003.5 |
| 20260504231545 | 80 | 224 | 3.0 | 13.0 | 0.00 | 0.00 | 0.00 | 66 | 1003.4 |
| 20260504230043 | 81 | 191 | 4.0 | 13.0 | 0.00 | 0.00 | 0.00 | 65 | 1003.5 |
| 20260504224555 | 82 | 278 | 3.0 | 16.0 | 0.00 | 0.00 | 0.00 | 64 | 1003.6 |
| 20260504223044 | 82 | 207 | 4.0 | 9.0 | 0.00 | 0.00 | 0.00 | 64 | 1003.7 |
| 20260504221540 | 81 | 169 | 3.0 | 11.0 | 0.00 | 0.00 | 0.00 | 65 | 1003.7 |
| 20260504220037 | 81 | 236 | 3.0 | 12.0 | 0.00 | 0.00 | 0.00 | 64 | 1003.9 |
| 20260504214535 | 81 | 184 | 3.0 | 10.0 | 0.00 | 0.00 | 0.00 | 64 | 1004.1 |
| 20260504213053 | 81 | 10 | 3.0 | 12.0 | 0.00 | 0.00 | 0.00 | 64 | 1004.4 |
| 20260504211532 | 82 | 192 | 6.0 | 12.0 | 0.00 | 0.00 | 0.00 | 63 | 1004.6 |
| 20260504210029 | 82 | 195 | 3.0 | 11.0 | 0.00 | 0.00 | 0.00 | 63 | 1004.9 |
| 20260504204529 | 81 | 240 | 3.0 | 13.0 | 0.00 | 0.00 | 0.00 | 64 | 1005.5 |
| 20260504203024 | 81 | 275 | 4.0 | 13.0 | 0.00 | 0.00 | 0.00 | 64 | 1005.6 |
| 20260504201525 | 81 | 170 | 3.0 | 10.0 | 0.00 | 0.00 | 0.00 | 64 | 1005.8 |
| 20260504200018 | 81 | 84 | 4.0 | 14.0 | 0.00 | 0.00 | 0.00 | 63 | 1006.2 |
| 20260504194518 | 80 | 220 | 4.0 | 16.0 | 0.00 | 0.00 | 0.00 | 64 | 1006.6 |
| 20260504193014 | 79 | 184 | 7.0 | 17.0 | 0.00 | 0.00 | 0.00 | 64 | 1006.6 |
| 20260504191511 | 79 | 195 | 5.0 | 15.0 | 0.00 | 0.00 | 0.00 | 63 | 1007.0 |
| 20260504190008 | 79 | 201 | 3.0 | 14.0 | 0.00 | 0.00 | 0.00 | 64 | 1007.2 |
| 20260504184511 | 79 | 198 | 5.0 | 15.0 | 0.00 | 0.00 | 0.00 | 65 | 1007.4 |
| 20260504183005 | 78 | 195 | 3.0 | 13.0 | 0.00 | 0.00 | 0.00 | 64 | 1007.8 |
| 20260504181502 | 77 | 232 | 7.0 | 17.0 | 0.00 | 0.00 | 0.00 | 64 | 1007.9 |
| 20260504180059 | 77 | 168 | 3.0 | 11.0 | 0.00 | 0.00 | 0.00 | 65 | 1008.1 |
| 20260504174612 | 77 | 226 | 8.0 | 15.0 | 0.00 | 0.00 | 0.00 | 63 | 1008.2 |
| 20260504173057 | 76 | 262 | 4.0 | 18.0 | 0.00 | 0.00 | 0.00 | 66 | 1008.5 |
| 20260504171552 | 76 | 252 | 5.0 | 12.0 | 0.00 | 0.00 | 0.00 | 67 | 1008.8 |
| 20260504090118 | 64 | 208 | 4.0 | 10.0 | 0.00 | 0.00 | 0.00 | 70 | 1010.8 |
| 20260504081547 | 66 | 184 | 5.0 | 12.0 | 0.00 | 0.00 | 0.00 | 67 | 1011.1 |